TimeCST,TemperatureF,Dew PointF,Humidity,Sea Level PressureIn,VisibilityMPH,Wind Direction,Wind SpeedMPH,Gust SpeedMPH,PrecipitationIn,Events,Conditions,WindDirDegrees,DateUTC
12:14 AM,-4.0,-11.2,71,30.15,10.0,West,5.8,-,N/A,,Clear,270,2014-01-07 06:14:00
12:33 AM,-4.0,-11.2,71,30.13,10.0,WSW,5.8,-,N/A,,Clear,250,2014-01-07 06:33:00
12:54 AM,-4.0,-11.2,71,30.13,10.0,West,4.6,-,N/A,,Clear,260,2014-01-07 06:54:00
1:14 AM,-4.0,-11.2,71,30.13,10.0,West,3.5,-,N/A,,Clear,270,2014-01-07 07:14:00
1:33 AM,-5.8,-11.2,77,30.12,10.0,WSW,3.5,-,N/A,,Clear,240,2014-01-07 07:33:00
1:54 AM,-5.8,-13.0,71,30.12,10.0,Calm,Calm,-,N/A,,Clear,0,2014-01-07 07:54:00
2:14 AM,-5.8,-13.0,71,30.12,10.0,Calm,Calm,-,N/A,,Clear,0,2014-01-07 08:14:00
2:33 AM,-5.8,-11.2,77,30.11,10.0,Calm,Calm,-,N/A,,Clear,0,2014-01-07 08:33:00
2:54 AM,-4.0,-11.2,71,30.12,10.0,SSW,3.5,-,N/A,,Clear,210,2014-01-07 08:54:00
3:13 AM,-4.0,-11.2,71,30.12,10.0,Calm,Calm,-,N/A,,Clear,0,2014-01-07 09:13:00
3:33 AM,-2.2,-9.4,71,30.11,10.0,Calm,Calm,-,N/A,,Scattered Clouds,0,2014-01-07 09:33:00
3:54 AM,-2.2,-9.4,71,30.11,10.0,South,3.5,-,N/A,,Scattered Clouds,180,2014-01-07 09:54:00
4:13 AM,-2.2,-9.4,71,30.10,10.0,South,4.6,-,N/A,,Clear,170,2014-01-07 10:13:00
4:33 AM,-0.4,-9.4,66,30.10,10.0,South,3.5,-,N/A,,Clear,190,2014-01-07 10:33:00
4:54 AM,-0.4,-9.4,66,30.09,10.0,SSW,5.8,-,N/A,,Clear,210,2014-01-07 10:54:00
5:13 AM,1.4,-7.6,66,30.09,10.0,SW,3.5,-,N/A,,Scattered Clouds,220,2014-01-07 11:13:00
5:33 AM,1.4,-7.6,66,30.08,10.0,SSW,4.6,-,N/A,,Scattered Clouds,210,2014-01-07 11:33:00
5:54 AM,1.4,-7.6,66,30.08,10.0,SW,5.8,-,N/A,,Scattered Clouds,220,2014-01-07 11:54:00
6:13 AM,1.4,-7.6,66,30.09,10.0,WSW,4.6,-,N/A,,Clear,240,2014-01-07 12:13:00
6:33 AM,1.4,-7.6,66,30.09,10.0,Calm,Calm,-,N/A,,Scattered Clouds,0,2014-01-07 12:33:00
6:54 AM,1.4,-7.6,66,30.09,10.0,WSW,3.5,-,N/A,,Scattered Clouds,240,2014-01-07 12:54:00
7:13 AM,3.2,-5.8,66,30.09,10.0,WSW,5.8,-,N/A,,Mostly Cloudy,240,2014-01-07 13:13:00
7:34 AM,3.2,-5.8,66,30.09,10.0,West,6.9,-,N/A,,Mostly Cloudy,270,2014-01-07 13:34:00
7:54 AM,3.2,-5.8,66,30.09,10.0,West,6.9,-,N/A,,Mostly Cloudy,280,2014-01-07 13:54:00
8:13 AM,3.2,-5.8,66,30.10,10.0,WNW,4.6,-,N/A,,Mostly Cloudy,300,2014-01-07 14:13:00
8:34 AM,3.2,-5.8,66,30.10,10.0,West,5.8,-,N/A,,Overcast,280,2014-01-07 14:34:00
8:54 AM,3.2,-5.8,66,30.11,10.0,West,4.6,-,N/A,,Overcast,280,2014-01-07 14:54:00
9:13 AM,3.2,-5.8,66,30.11,10.0,NW,4.6,-,N/A,,Overcast,310,2014-01-07 15:13:00
9:34 AM,3.2,-5.8,66,30.12,10.0,NW,3.5,-,N/A,,Scattered Clouds,310,2014-01-07 15:34:00
9:54 AM,5.0,-4.0,66,30.12,10.0,WNW,3.5,-,N/A,,Clear,290,2014-01-07 15:54:00
10:13 AM,5.0,-4.0,66,30.13,10.0,NW,4.6,-,N/A,,Clear,320,2014-01-07 16:13:00
10:34 AM,5.0,-4.0,66,30.14,10.0,NNW,3.5,-,N/A,,Clear,330,2014-01-07 16:34:00
10:53 AM,6.8,-4.0,61,30.13,10.0,WNW,3.5,-,N/A,,Clear,300,2014-01-07 16:53:00
11:13 AM,6.8,-4.0,61,30.13,10.0,WNW,3.5,-,N/A,,Clear,300,2014-01-07 17:13:00
11:34 AM,6.8,-4.0,61,30.13,10.0,NW,3.5,-,N/A,,Clear,310,2014-01-07 17:34:00
11:53 AM,6.8,-4.0,61,30.13,10.0,Calm,Calm,-,N/A,,Unknown,0,2014-01-07 17:53:00
12:13 PM,6.8,-4.0,61,30.13,10.0,NW,3.5,-,N/A,,Unknown,310,2014-01-07 18:13:00
12:33 PM,6.8,-4.0,61,30.13,10.0,NW,4.6,-,N/A,,Unknown,320,2014-01-07 18:33:00
12:53 PM,8.6,-2.2,62,30.13,10.0,NNW,4.6,-,N/A,,Unknown,330,2014-01-07 18:53:00
1:14 PM,8.6,-2.2,62,30.13,10.0,NW,5.8,-,N/A,,Unknown,310,2014-01-07 19:14:00
1:33 PM,8.6,-2.2,62,30.13,10.0,NNW,6.9,-,N/A,,Clear,330,2014-01-07 19:33:00
1:53 PM,8.6,-2.2,62,30.14,10.0,North,-9999.0,-,N/A,,Clear,0,2014-01-07 19:53:00
2:11 PM,8.6,-2.2,62,30.14,10.0,NNW,5.8,-,N/A,,Clear,330,2014-01-07 20:11:00
2:33 PM,8.6,-2.2,62,30.14,10.0,NNW,5.8,-,N/A,,Clear,340,2014-01-07 20:33:00
2:53 PM,8.6,-2.2,62,30.14,10.0,NNW,5.8,-,N/A,,Clear,340,2014-01-07 20:53:00
3:14 PM,8.6,-0.4,67,30.15,10.0,North,8.1,-,N/A,,Clear,350,2014-01-07 21:14:00
3:33 PM,8.6,-2.2,62,30.16,10.0,North,10.4,-,N/A,,Clear,350,2014-01-07 21:33:00
3:54 PM,8.6,-2.2,62,30.17,10.0,North,6.9,-,N/A,,Clear,350,2014-01-07 21:54:00
4:13 PM,8.6,-2.2,62,30.17,10.0,NNW,4.6,-,N/A,,Clear,340,2014-01-07 22:13:00
4:34 PM,6.8,-2.2,67,30.17,10.0,North,5.8,-,N/A,,Clear,350,2014-01-07 22:34:00
4:54 PM,6.8,-2.2,67,30.18,10.0,North,5.8,-,N/A,,Clear,350,2014-01-07 22:54:00
5:14 PM,5.0,-2.2,72,30.19,10.0,North,4.6,-,N/A,,Clear,350,2014-01-07 23:14:00
5:34 PM,6.8,-2.2,67,30.19,10.0,Calm,Calm,-,N/A,,Clear,0,2014-01-07 23:34:00
5:53 PM,5.0,-2.2,72,30.21,10.0,NW,3.5,-,N/A,,Clear,320,2014-01-07 23:53:00
6:14 PM,3.2,-2.2,78,30.21,10.0,NNW,4.6,-,N/A,,Clear,330,2014-01-08 00:14:00
6:34 PM,1.4,-5.8,72,30.22,10.0,Calm,Calm,-,N/A,,Clear,0,2014-01-08 00:34:00
6:53 PM,-0.4,-5.8,78,30.23,10.0,WNW,3.5,-,N/A,,Clear,290,2014-01-08 00:53:00
7:14 PM,1.4,-4.0,78,30.22,10.0,Calm,Calm,-,N/A,,Clear,0,2014-01-08 01:14:00
7:34 PM,-0.4,-5.8,78,30.22,10.0,SW,3.5,-,N/A,,Clear,230,2014-01-08 01:34:00
7:53 PM,-0.4,-5.8,78,30.22,10.0,Calm,Calm,-,N/A,,Clear,0,2014-01-08 01:53:00
8:14 PM,-4.0,-9.4,78,30.23,10.0,Calm,Calm,-,N/A,,Clear,0,2014-01-08 02:14:00
8:34 PM,-2.2,-7.6,78,30.23,10.0,WNW,3.5,-,N/A,,Clear,290,2014-01-08 02:34:00
8:53 PM,-5.8,-9.4,84,30.24,10.0,NW,3.5,-,N/A,,Clear,310,2014-01-08 02:53:00
9:14 PM,-5.8,-9.4,84,30.24,10.0,NW,3.5,-,N/A,,Clear,320,2014-01-08 03:14:00
9:33 PM,-2.2,-7.6,78,30.25,10.0,NNW,6.9,-,N/A,,Clear,330,2014-01-08 03:33:00
9:53 PM,-2.2,-7.6,78,30.26,10.0,NNW,5.8,-,N/A,,Clear,340,2014-01-08 03:53:00
10:14 PM,-2.2,-7.6,78,30.26,10.0,North,4.6,-,N/A,,Clear,360,2014-01-08 04:14:00
10:33 PM,-4.0,-9.4,78,30.26,10.0,North,5.8,-,N/A,,Clear,360,2014-01-08 04:33:00
10:54 PM,-2.2,-7.6,78,30.26,10.0,Calm,Calm,-,N/A,,Clear,0,2014-01-08 04:54:00
11:14 PM,-5.8,-9.4,84,30.27,10.0,Calm,Calm,-,N/A,,Clear,0,2014-01-08 05:14:00
11:33 PM,-5.8,-11.2,77,30.28,10.0,Calm,Calm,-,N/A,,Clear,0,2014-01-08 05:33:00
11:54 PM,-7.6,-11.2,84,30.28,10.0,Calm,Calm,-,N/A,,Clear,0,2014-01-08 05:54:00